Showing default

BLACKJACK ACES-2, 56955

Orbit data source: Space-Track

BLACKJACK ACES-2, 56955 is a payload satellite owned by DARPA (US) in SSO that was launched on Mon, 12 Jun 2023 UTC via an FALCON 9 launch vehicle from the Air Force Western Test Range (AFWTR). Payload-class satellites include a variety of spacecraft equipped with specific instruments for various scientific and technological missions. These include communications satellites like Starlink; space stations such as the ISS; scientific satellites like the Hubble; Earth observation satellites from companies like Planet Labs, Umbra, and HawkEye 360; GPS; miniature CubeSats for education and research; and military/defense satellites.

Loading next visibility...
Identifier
56955, 2023-084Z
Orbit
SSO
Country
Flag of USUS
Related business
Manufacturer
BLCAN/LMSS
Mission
Operational Defense Communications
Bus & Motor
X-SAT, Unknown motor
Mass
~200 kg wet, ~200 kg dry
Launch date (UTC)
2023-06-12 (3 years ago)
Launch vehicle
FALCON 9
Launch site
Air Force Western Test Range (AFWTR)
Object type
Payload
Rocket body
Debris
Shape & HBR
Box, 3.6 m
Radar Cross Section
0.875 m², Large (>1 m²)

Expand to show TLE details & history
Last TLE update: 1 week ago

TLE from 1 week ago
0 BLACKJACK ACES-2
1 56955U 23084Z   26154.33798861  .00007817  00000-0  38300-3 0  9990
2 56955  97.6196 289.5098 0001820  74.9989 285.1446 15.18428108165075
Epoch: 2026-06-03T08:06Z
TLE epoch observation values (Epoch: 2026-06-03T08:06:42.215Z)
Latitude
-0.00005°
Longitude
-83.96413°
Altitude
513.345 km
Speed
7.607 km/s
True Right ascension
19h 18m 02s
True Declination
0° 00' 00"
Sunlit
Object was in full shadow at epoch
Visualization orbit readout
Latitude
Unknown
Longitude
Unknown
Altitude
Unknown
Speed
Unknown
Apparent Right ascension
Unknown
Apparent Declination
Unknown
Sunlit
N/A
Visualization observer readout
Local Sidereal Time
15:02:23
Azimuth
Unknown
Elevation
Unknown
Doppler factor
Unknown
Orbital elements
Apogee altitude
508.821 km
Perigee altitude
506.315 km
Semi-major axis
6,885.705 km
Eccentricity
0.00018
Inclination
97.6196°
RAAN
289.5098°
Arg. of periapsis
74.9989°
True anomaly
285.12447°
Mean anomaly
285.1446°
Eccentric anomaly
285.13453°
Mean motion
3.79857 °/min
Orbital period
94.77 mins
BSTAR
0.000383
Loading maneuver chart data...
Computing Atmospheric mass density...
Loading historical data...
Loading historical data...
Loading historical data...
Loading historical data...
Loading historical data...
Loading historical data...
Loading historical data...

Documentation

Showing up to 5 results
|